SCP
1 1 1 1 0 0 0 0 0 0 0 0 0 0 0 0 0 0 0 0 0 0 0 0 0 0 0 0 0 0 0 0 0 0 0 0 0 0 0 0 0 0 0
1 1 1 1 1 0 0 0 0 0 0 0 0 0 0 0 0 0 0 0 0 0 0 0 0 0 0 0 0 0 0 0 0 0 0 0 0 0 0 0 0 0 0
0 0 0 1 1 0 0 0 0 0 0 0 0 0 0 0 0 0 0 0 0 0 0 0 0 0 0 0 0 0 0 0 0 0 0 0 0 0 0 0 0 0 0
0 0 0 0 0 0 0 0 0 0 0 0 0 0 0 0 0 0 0 0 0 0 0 0 0 0 0 0 0 0 0 0 0 0 0 0 0 0 0 0 0 0 0
0 0 0 0 0 0 0 0 0 0 0 0 0 0 0 0 0 0 0 0 0 0 0 0 0 0 0 0 0 0 0 0 0 0 0 0 0 0 0 0 0 0 0
0 0 0 0 0 0 0 1 1 0 0 0 0 0 0 0 0 0 0 0 0 0 0 0 0 0 0 0 0 0 0 0 0 0 0 0 0 0 0 0 0 0 0
0 0 0 0 0 0 1 1 1 1 0 0 0 0 0 0 0 0 0 0 0 0 0 0 0 0 0 0 0 0 0 0 0 0 0 0 0 0 0 0 0 0 0
0 0 0 0 0 1 1 1 1 1 0 0 0 0 0 0 0 0 0 0 0 0 0 0 0 0 0 0 0 0 0 0 0 0 0 0 0 0 0 0 0 0 0
0 0 0 0 1 1 1 0 0 0 0 0 0 0 0 0 0 0 0 0 0 0 0 0 0 0 0 0 0 0 0 0 0 0 0 0 0 0 0 0 0 0 0
0 0 0 0 0 0 0 0 0 0 0 0 0 0 0 0 0 0 0 0 0 0 0 0 0 0 0 0 0 0 0 0 0 0 0 0 0 0 0 0 0 0 0
0 0 0 0 0 0 0 0 0 0 0 0 0 0 0 0 0 0 0 0 0 0 0 0 0 0 0 0 0 0 0 0 0 0 0 0 0 0 0 0 0 0 0
0 0 0 0 0 0 0 0 0 0 0 0 0 0 0 0 0 0 0 0 0 0 0 0 0 0 0 0 0 0 0 0 0 0 0 0 0 0 0 0 0 0 0
1 1 0 0 0 0 0 0 0 0 0 0 0 0 0 0 0 0 0 0 0 0 0 0 0 0 0 0 0 0 0 0 0 0 0 0 0 0 0 0 0 0 0
1 1 1 0 0 1 0 0 0 0 0 0 0 0 0 0 0 0 0 0 0 0 0 0 0 0 0 0 0 0 0 0 0 0 0 0 0 0 0 0 0 0 0
1 1 1 1 1 1 0 0 0 0 0 0 0 0 0 0 0 0 0 0 0 0 0 0 0 0 0 0 0 0 0 0 0 0 0 0 0 0 0 0 0 0 0
1 1 1 1 1 1 1 0 0 0 0 0 0 0 0 0 0 0 0 0 0 0 0 0 0 0 0 0 0 0 0 0 0 0 0 0 0 0 0 0 0 0 0
1 1 1 1 1 1 0 0 0 0 0 0 0 0 0 0 0 0 0 0 0 0 0 0 0 0 0 0 0 0 0 0 0 0 0 0 0 0 0 0 0 0 0
0 1 1 1 1 1 0 0 0 0 0 0 0 0 0 0 0 0 0 0 0 0 0 0 0 0 0 0 0 0 0 0 0 0 0 0 0 0 0 0 0 0 0
0 0 1 1 1 1 1 0 0 0 0 0 0 0 0 0 1 1 1 0 0 0 0 0 0 0 0 0 0 0 0 0 0 0 0 0 0 0 0 0 0 1 1
0 0 1 1 1 1 1 0 0 0 0 0 0 0 0 0 1 1 0 0 0 0 0 0 0 0 0 0 0 0 0 0 0 0 0 0 0 0 0 0 0 1 1
0 0 1 1 1 1 1 1 0 0 0 0 0 0 0 0 0 0 0 0 0 0 0 0 0 0 0 0 0 0 0 0 0 0 0 0 0 0 0 0 0 0 0
0 0 0 1 1 1 1 1 1 0 0 1 1 1 0 0 0 0 0 0 0 0 0 0 0 0 0 0 0 0 0 0 0 0 0 0 0 0 0 0 0 0 0
0 0 0 1 1 1 1 1 1 1 1 1 1 1 0 0 0 0 0 0 0 0 0 0 0 0 0 0 0 0 0 0 0 0 0 0 0 0 0 0 0 0 0
0 0 0 0 0 1 1 1 1 1 1 1 1 0 0 0 0 0 0 1 0 0 0 0 0 0 1 1 1 1 1 0 0 0 0 0 0 0 0 0 0 0 0
0 0 0 0 0 0 1 1 1 1 1 1 1 1 0 0 0 0 0 0 0 0 0 0 0 0 1 1 1 1 1 1 0 0 0 0 0 0 0 0 0 0 0
0 0 0 0 0 0 1 1 1 1 1 1 1 1 1 0 0 0 0 0 0 0 0 0 0 0 0 1 1 1 1 0 0 0 1 1 1 0 0 0 0 0 0
Wind_Speed
9 8 8 7 7 6 6 6 6 5 4 2 2 1 2 2 2 3 3 3 3 3 2 1 2 1 2 2 3 3 4 2 1 1 2 3 4 4 4 4 4 5 6
10 9 9 8 8 7 7 7 6 5 4 2 1 1 2 2 3 2 3 3 3 3 2 2 2 2 2 2 2 2 1 2 0 1 1 1 3 3 4 3 3 4 4
11 11 10 10 8 8 8 6 7 6 5 4 2 2 2 2 2 3 2 3 3 3 3 3 2 2 1 2 1 1 1 1 1 1 2 2 2 2 3 4 3 4 4
11 11 11 10 10 9 8 7 7 7 6 5 4 3 2 2 2 2 2 3 3 4 3 3 2 2 2 2 1 1 0 1 0 1 1 3 2 1 2 2 3 4 4
12 12 12 11 10 9 8 7 7 6 6 5 4 3 2 2 2 2 3 3 4 4 3 3 2 2 2 2 1 1 0 1 1 1 1 1 0 2 1 1 2 2 3
13 12 12 10 10 9 8 7 7 6 5 5 5 4 3 3 3 3 3 2 3 3 4 3 2 2 2 2 1 1 1 1 1 1 1 1 1 1 1 0 1 1 2
13 13 13 12 11 10 9 8 8 7 7 6 5 4 4 3 3 3 3 2 2 2 3 2 2 2 2 2 2 1 1 1 1 1 2 2 2 2 1 1 1 1 1
13 14 14 12 11 11 10 10 9 8 7 6 6 5 5 3 2 2 2 2 2 2 3 3 3 3 2 2 2 1 2 1 1 2 1 1 1 1 1 1 1 0 1
13 13 13 13 12 12 11 11 10 9 8 8 6 5 5 4 3 3 3 2 2 2 3 3 3 3 3 2 2 2 2 2 2 2 2 1 1 1 1 1 2 2 1
13 13 13 13 12 11 11 10 10 10 9 8 6 5 5 5 4 3 3 3 3 2 3 3 3 3 3 2 2 2 2 2 3 2 2 2 1 1 1 1 1 2 2
11 12 12 12 12 11 11 11 11 10 9 9 8 7 6 5 4 3 4 3 3 3 3 3 3 3 3 3 3 2 2 2 2 2 2 2 2 1 1 1 1 1 1
10 10 11 11 11 12 12 12 11 11 9 8 8 7 6 6 6 5 4 4 4 3 3 3 3 3 2 2 2 2 2 1 2 2 2 2 2 1 1 1 1 1 1
9 9 10 11 11 12 12 12 11 11 10 9 8 8 7 7 6 6 5 4 4 4 4 3 3 3 2 2 2 2 2 1 1 1 1 1 1 1 1 0 1 0 0
9 10 10 10 10 11 12 12 11 11 10 10 9 9 8 7 7 6 5 5 4 4 4 3 3 3 3 3 2 2 1 1 1 1 1 1 1 1 1 0 1 1 0
9 10 10 10 11 11 11 11 11 11 11 11 10 10 9 8 7 7 6 5 5 4 4 3 3 3 2 2 2 2 2 1 1 1 1 2 3 5 4 2 2 1 1
9 10 10 11 11 12 11 11 11 11 11 11 10 9 9 8 8 7 7 6 5 5 4 4 3 3 2 3 1 1 2 2 1 1 1 1 1 1 1 1 3 4 3
8 10 10 10 11 11 11 11 11 11 11 11 10 10 9 9 9 8 7 7 6 6 5 5 4 4 4 5 4 3 3 2 1 1 1 1 1 1 1 2 3 1 1
7 9 9 10 10 10 11 10 11 11 11 11 10 10 10 10 9 8 8 8 7 6 5 5 5 4 3 5 5 5 4 2 2 2 2 2 1 0 1 1 1 1 1
6 7 9 9 10 11 11 11 11 11 10 10 10 10 10 10 9 9 9 7 6 6 5 5 4 4 4 5 5 5 3 3 3 2 2 3 2 1 1 3 2 2 1
4 6 7 9 10 10 11 11 11 11 10 10 10 10 10 10 10 9 8 7 6 6 5 5 4 4 4 4 5 6 3 3 3 2 2 1 2 1 2 4 3 3 2
3 5 7 8 9 10 11 11 10 10 10 9 9 9 10 10 9 8 7 7 6 6 5 5 5 4 3 4 5 5 4 3 3 2 2 1 3 3 3 5 4 3 4
4 5 6 7 8 10 11 11 10 9 9 9 9 9 9 8 8 8 7 7 7 6 6 5 5 4 4 3 4 5 5 4 3 2 2 1 3 2 3 3 1 1 3
4 5 6 6 7 9 10 10 9 9 9 10 10 9 9 8 8 8 8 7 6 6 5 5 4 4 3 4 5 5 4 4 3 1 1 1 2 2 3 3 3 4 3
4 5 6 7 7 8 9 9 9 10 10 10 10 9 9 8 8 6 6 6 6 6 5 5 5 4 3 3 4 4 4 5 4 2 3 3 2 2 2 2 3 3 2
4 5 6 6 7 8 8 8 9 10 11 10 9 9 8 8 7 6 4 5 4 4 5 5 4 4 4 2 2 3 3 3 2 2 2 2 2 2 2 2 2 2 2
4 5 5 6 7 8 8 8 9 10 10 9 9 7 7 7 6 6 5 3 1 3 2 1 2 2 2 4 4 3 2 3 4 3 3 2 2 2 2 2 2 2 2
Wind_Direction
185 175 176 180 181 177 175 169 168 155 152 148 154 131 107 102 82 63 54 52 52 51 67 92 95 84 100 112 124 117 119 114 107 118 112 107 75 56 58 43 39 53 46
185 178 184 184 186 179 182 178 174 169 166 160 148 118 103 94 73 71 65 44 50 51 59 82 103 104 114 133 139 144 141 125 205 307 293 156 133 88 60 54 41 43 50
192 183 186 185 185 183 183 184 179 175 173 163 147 136 134 143 115 95 80 51 49 56 56 60 70 90 120 125 139 165 182 179 155 352 328 333 47 94 90 55 54 50 44
196 188 186 187 188 187 185 187 183 183 175 172 177 169 169 133 106 104 97 90 72 69 61 67 67 82 80 110 149 146 233 258 234 112 349 354 11 310 113 112 70 55 45
196 191 189 190 190 183 184 188 182 183 177 183 181 202 176 125 118 121 112 102 85 75 74 68 68 76 83 95 90 86 312 284 324 344 6 34 349 299 343 89 89 83 60
194 193 190 188 186 181 184 184 182 178 176 186 188 194 158 147 140 138 127 120 105 93 86 75 72 72 74 80 74 88 99 3 4 338 345 332 341 10 17 102 110 81 69
192 191 189 189 187 184 185 183 181 180 182 186 185 180 170 169 158 148 139 134 116 104 93 89 79 74 72 77 77 90 68 67 20 349 3 2 1 3 343 323 80 102 100
191 191 190 190 189 187 186 185 186 185 182 186 183 178 171 180 153 148 144 139 116 98 101 98 90 84 81 86 81 69 67 58 69 53 44 28 31 22 8 353 320 241 140
189 190 190 191 190 188 188 189 188 187 185 187 184 180 177 180 168 162 148 129 119 109 112 118 113 105 97 83 88 75 80 67 52 59 73 56 67 43 22 344 308 314 311
188 189 190 190 192 189 189 191 191 189 186 186 185 180 179 175 170 166 154 149 139 131 136 133 129 121 112 102 90 85 67 80 73 39 45 49 63 62 44 339 321 323 320
187 186 187 190 190 187 187 190 192 190 186 187 185 181 176 174 173 170 159 157 152 155 155 151 148 135 129 120 110 96 94 80 87 88 69 65 51 56 53 27 8 353 320
183 183 184 184 187 189 191 192 192 189 187 186 183 182 176 176 181 174 167 166 162 165 164 154 154 143 138 132 129 124 118 88 66 64 66 67 82 63 42 23 34 35 345
176 176 179 184 187 191 193 193 192 189 184 183 182 182 182 183 185 180 172 172 168 164 162 158 156 151 152 144 143 141 135 111 80 54 40 46 63 75 78 19 5 2 30
176 177 180 185 188 190 191 192 192 187 182 182 184 187 190 188 186 181 177 175 171 172 168 163 165 165 162 161 158 151 151 129 102 68 35 19 8 349 5 344 341 330 303
185 186 186 185 186 189 190 190 190 187 183 184 187 190 188 186 186 181 180 176 174 178 173 169 170 172 176 177 177 167 170 170 155 135 84 48 35 23 6 350 339 322 294
195 193 192 189 191 190 189 188 189 187 185 187 189 187 188 185 187 185 182 178 178 183 180 184 182 178 172 127 160 239 186 193 196 193 177 134 152 129 133 6 356 348 323
200 198 198 195 195 193 188 188 189 185 188 190 187 184 186 186 190 186 182 182 185 187 190 195 193 196 171 155 172 213 232 222 236 236 229 194 161 228 198 169 188 202 309
200 200 199 195 192 188 185 184 182 184 188 189 186 184 185 187 190 188 187 192 194 188 196 199 200 202 182 169 183 203 224 222 223 236 243 237 238 224 284 262 258 286 290
205 199 197 192 187 183 180 179 181 184 188 189 188 185 186 186 187 189 191 193 193 192 196 198 199 202 193 179 193 214 219 218 222 231 248 255 247 114 254 258 262 268 246
200 193 186 185 183 179 176 178 181 184 189 190 190 186 185 185 188 190 188 184 186 192 195 195 203 206 209 165 190 218 221 223 222 221 222 230 260 164 237 255 263 271 280
182 181 178 180 181 174 174 181 183 189 188 183 182 180 180 183 185 186 184 184 185 188 196 197 200 204 204 172 183 213 232 229 234 234 233 191 170 206 238 268 279 302 305
166 174 174 175 174 172 176 182 186 185 175 170 173 176 177 178 179 180 183 187 185 188 195 202 202 204 196 195 182 201 232 266 246 250 250 129 135 189 233 250 265 287 279
165 171 171 171 172 174 181 184 180 173 168 168 171 174 174 176 178 179 181 183 187 194 199 203 206 203 195 176 180 195 205 225 240 257 60 78 156 195 212 210 228 240 249
166 170 170 174 174 176 183 184 173 170 169 170 171 171 173 174 176 178 184 186 190 195 200 203 206 204 198 197 180 181 178 176 194 198 153 165 195 217 232 217 216 231 255
170 176 178 180 179 176 178 178 174 172 173 172 169 170 170 168 170 171 176 191 194 201 203 202 204 204 207 176 160 197 193 191 180 182 197 207 209 223 226 228 236 242 240
176 178 181 184 181 176 176 174 174 175 174 171 170 169 167 168 169 166 155 92 126 124 155 184 218 188 135 130 153 168 160 149 163 199 216 222 236 251 256 253 247 247 260